1495310400.11,12970,19.38,73906.0,2.69,2.01,2.09,0,*75
1495310401.37,12971,19.38,73906.0,2.69,2.01,2.01,0,*7C
1495310402.62,12972,19.38,73908.8,2.67,2.01,1.97,0,*7D
1495310403.87,12973,19.38,73908.0,2.69,2.01,2.01,0,*7E
1495310405.12,12974,19.38,73910.3,2.67,2.01,2.01,0,*77
1495310406.38,12975,19.38,73908.5,2.69,2.09,2.01,0,*70
1495310407.63,12976,19.38,73912.5,2.67,2.01,2.01,0,*75
1495310408.89,12977,19.38,73914.5,2.69,1.97,2.01,0,*76
1495310410.14,12978,19.38,73926.8,2.67,1.97,1.97,0,*7B
1495310411.39,12979,19.38,73918.8,2.69,1.97,1.97,0,*74
1495310412.65,12980,19.38,73916.3,2.69,1.97,1.93,0,*76
1495310413.89,12981,19.38,73912.0,2.67,1.93,1.93,0,*7D
1495310415.14,12982,19.38,73922.5,2.67,1.93,2.01,0,*76
1495310416.4,12983,19.38,73910.5,2.67,2.01,2.01,0,*7F
1495310417.64,12984,19.38,73908.5,2.67,1.97,1.97,0,*78
1495310418.9,12985,19.38,73904.8,2.69,1.97,2.01,0,*7B
1495310420.15,12986,19.38,73900.5,2.67,2.09,2.01,0,*72
1495310421.41,12987,19.38,73896.0,2.69,2.01,2.09,0,*7D
1495310422.66,12988,19.38,73914.3,2.67,2.01,2.01,0,*74
1495310423.91,12989,19.31,73900.5,2.67,2.01,1.97,0,*79
1495310425.16,12990,19.38,73896.3,2.69,2.01,1.97,0,*7F
1495310426.41,12991,19.38,73900.3,2.67,2.01,1.97,0,*70
1495310427.66,12992,19.38,73906.0,2.67,2.01,1.97,0,*73
1495310428.91,12993,19.38,73906.0,2.67,2.01,1.97,0,*72
1495310430.16,12994,19.38,73902.8,2.69,1.97,1.97,0,*77
1495310431.42,12995,19.38,73914.3,2.69,1.97,2.01,0,*7A
1495310432.68,12996,19.38,73910.0,2.69,2.01,2.01,0,*75
1495310433.93,12997,19.38,73908.8,2.69,2.01,2.01,0,*74
1495310435.18,12998,19.38,73904.3,2.67,1.97,2.01,0,*79
1495310436.44,12999,19.38,73914.5,2.69,2.01,2.01,0,*7A
1495310437.7,13000,19.38,73918.0,2.69,2.01,2.01,0,*72
1495310438.95,13001,19.38,73908.5,2.69,1.97,2.01,0,*7F
1495310440.21,13002,19.38,73906.3,2.67,1.97,2.01,0,*72
1495310441.46,13003,19.38,73906.0,2.69,2.01,2.01,0,*71
1495310442.72,13004,19.38,73902.5,2.69,2.01,2.09,0,*7E
1495310443.97,13005,19.38,73896.5,2.69,2.09,2.01,0,*7F
1495310445.23,13006,19.38,73896.3,2.67,1.97,2.01,0,*76
1495310446.48,13007,19.38,73898.8,2.69,2.01,1.97,0,*79
1495310447.71,13008,19.38,73904.0,2.71,2.05,2.05,0,*73
1495310448.96,13009,19.38,73906.5,2.69,1.97,1.97,0,*7B
1495310450.22,13010,19.38,73898.8,2.67,2.01,2.01,0,*7D
1495310451.47,13011,19.38,73894.8,2.69,1.97,1.97,0,*72
1495310452.72,13012,19.38,73896.5,2.69,1.97,1.97,0,*71
1495310453.98,13013,19.38,73906.3,2.69,2.01,2.01,0,*70
1495310455.23,13014,19.38,73902.5,2.67,2.01,2.01,0,*79
1495310456.49,13015,19.38,73906.3,2.69,2.01,2.01,0,*76
1495310457.74,13016,19.38,73902.3,2.67,1.97,1.97,0,*7B
1495310458.99,13017,19.38,73900.5,2.69,1.97,1.97,0,*74
1495310460.25,13018,19.38,73896.0,2.69,1.97,1.97,0,*7B
1495310461.51,13019,19.38,73900.3,2.69,1.97,2.01,0,*76
1495310462.76,13020,19.38,73894.0,2.69,2.01,1.97,0,*7C
1495310464.01,13021,19.38,73892.8,2.69,2.01,2.01,0,*71
1495310465.27,13022,19.38,73898.3,2.69,1.97,1.97,0,*72
1495310466.52,13023,19.38,73898.0,2.67,2.01,2.01,0,*7D
1495310467.78,13024,19.38,73898.8,2.69,2.01,2.01,0,*74
1495310469.03,13025,19.38,73892.0,2.69,1.97,2.01,0,*79
1495310470.29,13026,19.38,73894.3,2.69,1.97,1.97,0,*76
1495310471.54,13027,19.38,73890.8,2.69,2.01,1.97,0,*7B
1495310472.8,13028,19.38,73898.3,2.69,1.97,2.01,0,*74
1495310474.05,13029,19.38,73896.5,2.69,2.01,2.01,0,*79
1495310475.31,13030,19.38,73896.0,2.67,1.97,2.01,0,*73
1495310476.56,13031,19.38,73886.3,2.67,1.97,1.97,0,*7E
1495310477.81,13032,19.31,73882.5,2.69,1.93,1.93,0,*73
1495310479.07,13033,19.38,73894.3,2.69,1.93,1.85,0,*75
1495310480.32,13034,19.38,73896.5,2.69,1.93,1.93,0,*75
1495310481.57,13035,19.38,73898.3,2.69,1.93,1.97,0,*70
1495310482.82,13036,19.38,73900.3,2.67,1.97,1.97,0,*79
1495310484.07,13037,19.38,73898.8,2.67,1.97,1.97,0,*78
1495310485.33,13038,19.38,73896.0,2.69,1.97,1.97,0,*79
1495310486.58,13039,19.38,73894.0,2.69,1.93,1.97,0,*7C
1495310487.84,13040,19.38,73902.5,2.69,1.97,2.01,0,*7A
1495310489.09,13041,19.38,73890.3,2.69,1.97,1.97,0,*77
1495310490.34,13042,19.38,73902.3,2.69,1.93,1.97,0,*70
1495310491.6,13043,19.38,73898.8,2.69,1.93,1.97,0,*71
1495310492.85,13044,19.38,73884.8,2.69,1.97,2.01,0,*7E
1495310494.11,13045,19.38,73896.5,2.69,1.97,1.93,0,*77
1495310495.36,13046,19.38,73908.0,2.67,1.93,1.93,0,*7E
1495310496.61,13047,19.38,73904.0,2.69,1.97,1.97,0,*71
1495310497.86,13048,19.38,73904.5,2.67,1.93,1.97,0,*74
1495310499.1,13049,19.38,73900.5,2.67,1.93,1.97,0,*75
1495310500.36,13050,19.38,73894.0,2.69,1.93,1.85,0,*70
1495310501.62,13051,19.38,73894.8,2.69,1.93,1.93,0,*76
1495310502.87,13052,19.31,73898.3,2.69,1.93,1.93,0,*75
1495310504.12,13053,19.31,73902.3,2.67,2.01,2.01,0,*7A
1495310505.37,13054,19.38,73906.5,2.67,1.97,2.01,0,*71
1495310506.62,13055,19.38,73900.5,2.67,1.97,1.97,0,*7C
1495310507.88,13056,19.38,73900.3,2.69,1.97,1.97,0,*71
1495310509.13,13057,19.38,73898.3,2.67,1.97,1.97,0,*7E
1495310510.38,13058,19.38,73894.3,2.69,1.93,1.93,0,*7F
1495310511.63,13059,19.38,73900.0,2.67,1.97,2.01,0,*7C
1495310512.88,13060,19.38,73898.8,2.67,1.97,1.97,0,*7A
1495310514.13,13061,19.38,73892.3,2.67,1.97,1.97,0,*7B
1495310515.38,13062,19.38,73898.3,2.67,1.93,1.93,0,*78
1495310516.63,13063,19.38,73910.8,2.67,1.93,1.93,0,*79
1495310517.88,13064,19.38,73908.3,2.67,1.93,1.93,0,*7E
1495310519.13,13065,19.38,73900.0,2.67,1.85,1.85,0,*7F
1495310520.37,13066,19.38,73904.3,2.69,1.83,1.85,0,*74
1495310521.61,13067,19.38,73908.5,2.67,1.93,1.93,0,*7D
1495310522.86,13068,19.38,73914.3,2.67,1.93,1.93,0,*72
1495310524.11,13069,19.38,73908.5,2.67,1.97,1.93,0,*77
1495310525.36,13070,19.38,73906.5,2.67,1.97,1.97,0,*7B
1495310526.61,13071,19.31,73906.0,2.67,2.01,2.01,0,*7A
1495310527.86,13072,19.38,73904.3,2.67,2.01,2.01,0,*79
1495310529.11,13073,19.38,73900.5,2.67,2.01,1.97,0,*74
1495310530.36,13074,19.31,73898.8,2.67,1.97,1.97,0,*7F
1495310531.62,13075,19.38,73898.0,2.67,1.97,2.01,0,*72
1495310532.87,13076,19.38,73900.0,2.67,1.97,1.97,0,*7D
1495310534.12,13077,19.38,73894.0,2.67,1.97,1.97,0,*7C
1495310535.37,13078,19.38,73896.0,2.67,1.97,1.97,0,*73
1495310536.62,13079,19.38,73902.5,2.67,1.97,1.97,0,*72
1495310537.87,13080,19.38,73906.8,2.67,1.97,1.97,0,*74
1495310539.12,13081,19.38,73904.0,2.67,1.97,1.97,0,*75
1495310540.37,13082,19.38,73906.8,2.67,1.93,1.97,0,*72
1495310541.61,13083,19.38,73904.3,2.67,1.93,1.93,0,*77
1495310542.87,13084,19.38,73902.3,2.67,1.93,2.01,0,*78
1495310544.12,13085,19.38,73896.5,2.69,1.97,2.01,0,*73
1495310545.35,13086,19.38,73904.3,2.65,1.97,1.93,0,*74
1495310546.57,13087,19.38,73908.0,2.65,1.93,1.93,0,*71
1495310547.8,13088,19.38,73908.8,2.65,1.93,1.93,0,*7E
1495310549.02,13089,19.38,73906.0,2.65,1.93,1.93,0,*7F
1495310550.27,13090,19.38,73912.3,2.67,2.01,2.01,0,*75
1495310551.53,13091,19.38,73914.5,2.67,2.01,2.01,0,*74
1495310552.78,13092,19.38,73910.5,2.67,2.01,2.01,0,*77
1495310554.03,13093,19.38,73912.8,2.67,2.13,2.13,0,*76
1495310555.28,13094,19.31,73910.5,2.67,2.13,2.09,0,*7A
1495310556.54,13095,19.38,73914.0,2.67,2.09,2.09,0,*70
1495310557.79,13096,19.38,73912.3,2.67,2.01,2.01,0,*73
1495310559.04,13097,19.38,73910.0,2.67,1.97,2.01,0,*7E
1495310560.3,13098,19.31,73898.5,2.69,2.09,2.01,0,*7B
1495310561.55,13099,19.38,73900.3,2.67,2.13,2.09,0,*77
1495310562.8,13100,19.31,73888.3,2.69,2.09,2.09,0,*73
1495310564.03,13101,19.38,73892.5,2.65,2.09,2.09,0,*7E
1495310565.29,13102,19.38,73896.0,2.69,2.09,2.09,0,*71
1495310566.54,13103,19.38,73906.3,2.67,1.97,1.97,0,*7E
1495310567.79,13104,19.38,73914.0,2.67,1.97,1.97,0,*79
1495310569.04,13105,19.38,73902.5,2.67,1.97,1.97,0,*78
1495310570.29,13106,19.38,73888.0,2.67,1.93,1.93,0,*7B
1495310571.54,13107,19.38,73908.3,2.67,1.97,1.93,0,*7E
1495310572.79,13108,19.38,73906.3,2.67,1.97,1.97,0,*75
1495310574.04,13109,19.38,73900.3,2.67,1.97,2.01,0,*78
1495310575.29,13110,19.38,73902.8,2.67,1.97,1.97,0,*7C
1495310576.55,13111,19.38,73896.5,2.69,1.97,1.97,0,*73
1495310577.8,13112,19.38,73900.8,2.67,1.97,1.97,0,*7E
1495310579.04,13113,19.31,73894.8,2.67,1.93,1.93,0,*7F
1495310580.3,13114,19.38,73898.5,2.67,1.85,1.93,0,*7F
1495310581.54,13115,19.38,73896.3,2.67,1.93,1.93,0,*79
1495310582.79,13116,19.38,73896.0,2.67,1.93,1.97,0,*7E
1495310584.04,13117,19.31,73888.0,2.69,1.93,1.97,0,*71
1495310585.29,13118,19.38,73900.8,2.67,1.97,1.97,0,*74
1495310586.55,13119,19.38,73902.8,2.67,1.97,2.01,0,*79
1495310587.8,13120,19.38,73892.8,2.67,1.97,1.97,0,*7F
1495310589.04,13121,19.38,73894.0,2.67,1.93,1.93,0,*7E
1495310590.29,13122,19.38,73902.0,2.67,1.93,1.93,0,*7D
1495310591.54,13123,19.38,73898.5,2.67,1.93,1.93,0,*7C
1495310592.79,13124,19.38,73892.5,2.67,1.93,1.93,0,*7B
1495310594.03,13125,19.38,73886.5,2.67,1.93,1.93,0,*7A
1495310595.28,13126,19.38,73886.8,2.67,1.93,1.97,0,*7D
1495310596.53,13127,19.31,73886.8,2.67,1.93,1.97,0,*7C
1495310597.75,13128,19.38,73882.3,2.65,1.89,1.97,0,*7A
1495310598.97,13129,19.38,73876.8,2.65,1.89,1.93,0,*7F
1495310600.22,13130,19.31,73878.0,2.67,1.97,1.97,0,*7E
1495310601.47,13131,19.38,73876.8,2.67,1.97,1.97,0,*7F
1495310602.72,13132,19.31,73882.3,2.67,1.93,1.93,0,*7C
1495310603.94,13133,19.38,73888.5,2.65,1.89,1.89,0,*7F
1495310605.16,13134,19.38,73886.3,2.65,1.89,1.89,0,*78
1495310606.4,13135,19.38,73892.3,2.67,1.93,1.93,0,*7B
1495310607.58,13136,19.38,73890.8,2.65,1.83,1.79,0,*7F
1495310608.76,13137,19.38,73892.0,2.65,1.79,1.79,0,*7B
1495310609.94,13138,19.38,73896.8,2.65,1.79,1.79,0,*74
1495310611.16,13139,19.38,73910.5,2.65,1.89,1.89,0,*75
1495310612.36,13140,19.38,73894.5,2.65,1.83,1.89,0,*71
1495310613.56,13141,19.38,73888.3,2.65,1.89,1.83,0,*70
1495310614.77,13142,19.38,73894.5,2.65,1.85,1.83,0,*7F
1495310615.96,13143,19.38,73906.0,2.65,1.83,1.89,0,*72
1495310617.18,13144,19.31,73908.5,2.65,1.89,1.93,0,*74
1495310618.41,13145,19.31,73906.5,2.65,1.93,1.93,0,*7E
1495310619.63,13146,19.38,73906.8,2.65,1.93,1.89,0,*76
1495310620.87,13147,19.31,73898.0,2.63,1.89,1.89,0,*7A
1495310622.09,13148,19.38,73888.3,2.65,1.93,1.93,0,*73
1495310623.3,13149,19.31,73886.5,2.65,1.79,1.85,0,*71
1495310624.54,13150,19.38,73896.5,2.63,1.85,1.89,0,*70
1495310625.78,13151,19.31,73906.8,2.63,1.89,1.89,0,*7D
1495310627.01,13152,19.31,73914.0,2.65,1.93,1.93,0,*78
1495310628.23,13153,19.38,73896.8,2.65,1.93,1.93,0,*79
1495310629.46,13154,19.38,73900.5,2.63,1.85,1.79,0,*7B
1495310630.68,13155,19.38,73912.3,2.65,1.85,1.89,0,*73
1495310631.94,13156,19.31,73892.8,2.63,1.85,1.85,0,*7A
1495310633.12,13157,19.38,73900.0,2.65,1.83,1.83,0,*7D
1495310634.32,13158,19.38,73902.3,2.63,1.79,1.79,0,*74
1495310635.55,13159,19.38,73906.0,2.63,1.75,1.85,0,*7A
1495310636.8,13160,19.31,73900.3,2.63,1.85,1.85,0,*7F
1495310638.06,13161,19.31,73906.3,2.63,1.85,1.85,0,*7E
1495310639.3,13162,19.38,73916.3,2.63,1.89,1.93,0,*76
1495310640.54,13163,19.38,73916.3,2.63,1.89,1.93,0,*77
1495310641.78,13164,19.38,73914.3,2.63,1.93,1.89,0,*70
1495310643.02,13165,19.38,73908.5,2.63,1.93,1.93,0,*7A
1495310644.25,13166,19.38,73906.0,2.65,1.97,1.93,0,*7B
1495310645.5,13167,19.38,73908.3,2.63,1.93,2.01,0,*70
1495310646.72,13168,19.38,73910.3,2.65,1.97,1.93,0,*75
1495310647.97,13169,19.31,73910.8,2.63,1.89,1.93,0,*7D
1495310649.19,13170,19.38,73912.8,2.65,2.05,2.05,0,*78
1495310650.42,13171,19.31,73910.5,2.65,2.05,2.05,0,*79
1495310651.65,13172,19.38,73920.5,2.65,2.05,2.05,0,*7A
1495310652.89,13173,19.38,73908.5,2.63,1.89,1.89,0,*7D
1495310654.12,13174,19.38,73912.0,2.63,1.89,1.89,0,*7A
1495310655.35,13175,19.31,73902.8,2.65,1.93,1.93,0,*7D
1495310656.6,13176,19.31,73906.0,2.63,1.97,2.01,0,*74
1495310657.85,13177,19.31,73902.5,2.63,2.05,2.05,0,*79
1495310659.08,13178,19.38,73904.5,2.65,1.97,2.05,0,*78
1495310660.3,13179,19.38,73912.5,2.65,1.97,1.93,0,*75
1495310661.54,13180,19.38,73910.0,2.65,1.97,2.05,0,*7F
1495310662.76,13181,19.38,73900.0,2.65,1.93,1.97,0,*72
1495310663.99,13182,19.38,73906.3,2.65,1.97,1.97,0,*75
1495310665.23,13183,19.31,73900.8,2.63,1.93,1.93,0,*72
1495310666.46,13184,19.38,73904.5,2.65,1.93,1.93,0,*73
1495310667.69,13185,19.38,73906.0,2.65,1.97,2.05,0,*7A
1495310668.92,13186,19.31,73906.5,2.65,2.09,2.05,0,*7D
1495310670.14,13187,19.38,73918.3,2.65,2.05,2.05,0,*70
1495310671.37,13188,19.38,73914.5,2.65,1.93,1.93,0,*7F
1495310672.59,13189,19.31,73908.0,2.65,1.93,1.93,0,*7E
1495310673.82,13190,19.31,73902.8,2.65,1.93,1.93,0,*76
1495310675.05,13191,19.38,73910.0,2.65,1.97,2.05,0,*7F
1495310676.27,13192,19.38,73918.0,2.65,2.05,2.05,0,*74
1495310677.5,13193,19.31,73918.8,2.65,2.05,1.93,0,*79
1495310678.72,13194,19.31,73898.3,2.65,1.93,1.93,0,*72
1495310679.95,13195,19.38,73888.5,2.65,1.97,1.97,0,*73
1495310681.17,13196,19.38,73892.8,2.65,1.93,1.89,0,*7B
1495310682.39,13197,19.38,73892.3,2.65,1.89,1.89,0,*71
1495310683.61,13198,19.31,73894.8,2.65,1.93,1.93,0,*7E
1495310684.84,13199,19.31,73884.0,2.65,1.97,1.97,0,*7F
1495310686.07,13200,19.31,73888.3,2.65,1.97,2.05,0,*74
1495310687.3,13201,19.31,73896.5,2.65,1.97,1.97,0,*7D
1495310688.52,13202,19.31,73890.5,2.65,1.93,1.97,0,*7A
1495310689.75,13203,19.31,73896.5,2.65,1.97,1.97,0,*7F
1495310690.98,13204,19.31,73898.8,2.65,1.97,1.93,0,*7C
1495310692.2,13205,19.31,73900.3,2.65,2.05,1.97,0,*71
1495310693.43,13206,19.38,73904.3,2.65,2.05,2.05,0,*7A
1495310694.66,13207,19.31,73908.5,2.65,2.05,2.09,0,*77
1495310695.89,13208,19.31,73908.8,2.65,1.97,1.97,0,*74
1495310697.14,13209,19.38,73910.8,2.67,1.97,1.97,0,*77
1495310698.39,13210,19.38,73912.5,2.67,1.97,2.01,0,*73
1495310699.64,13211,19.31,73914.0,2.67,1.97,1.97,0,*7E
1495310700.89,13212,19.31,73900.8,2.67,1.97,1.97,0,*7D
1495310702.14,13213,19.31,73906.3,2.67,1.97,1.97,0,*7C
1495310703.39,13214,19.31,73904.3,2.67,2.01,2.01,0,*7B
1495310704.62,13215,19.31,73900.0,2.65,1.97,1.97,0,*78
1495310705.85,13216,19.31,73904.8,2.65,1.97,2.05,0,*73
1495310707.07,13217,19.38,73908.8,2.65,2.05,1.97,0,*72
1495310708.33,13218,19.31,73904.8,2.67,2.09,2.13,0,*7C
1495310709.58,13219,19.31,73908.8,2.67,2.13,2.13,0,*76
1495310710.84,13220,19.31,73904.8,2.67,2.09,2.09,0,*7C
1495310712.09,13221,19.31,73898.3,2.67,2.09,2.13,0,*76
1495310713.34,13222,19.38,73902.8,2.67,1.97,1.97,0,*7E
1495310714.59,13223,19.31,73902.0,2.67,2.01,2.01,0,*7F
1495310715.84,13224,19.31,73900.3,2.67,2.01,2.01,0,*78
1495310717.07,13225,19.38,73898.8,2.65,1.97,1.93,0,*7F
1495310718.3,13226,19.31,73896.0,2.65,1.97,1.97,0,*78
1495310719.55,13227,19.31,73896.0,2.67,2.01,2.01,0,*7B
1495310720.8,13228,19.31,73892.3,2.67,1.97,1.97,0,*74
1495310722.05,13229,19.31,73888.5,2.67,2.01,1.97,0,*79
1495310723.3,13230,19.31,73886.8,2.67,1.97,1.97,0,*7D
1495310724.55,13231,19.31,73892.5,2.67,2.01,2.01,0,*7C
1495310725.8,13232,19.31,73890.0,2.67,2.01,2.01,0,*7F
1495310727.05,13233,19.31,73896.3,2.67,2.01,2.09,0,*76
1495310728.31,13234,19.38,73898.3,2.67,1.97,2.01,0,*75
1495310729.56,13235,19.38,73896.8,2.67,1.97,1.97,0,*78
1495310730.81,13236,19.31,73890.5,2.67,1.97,1.97,0,*7B
1495310732.06,13237,19.38,73896.3,2.67,1.97,1.97,0,*7A
1495310733.32,13238,19.31,73890.3,2.67,1.85,1.85,0,*75
1495310734.57,13239,19.31,73886.0,2.67,1.93,1.85,0,*73
1495310735.82,13240,19.31,73896.5,2.67,1.93,1.93,0,*7A
1495310737.07,13241,19.31,73898.0,2.67,1.97,1.97,0,*7B
1495310738.32,13242,19.31,73896.0,2.67,2.01,1.97,0,*74
1495310739.57,13243,19.31,73900.3,2.67,1.97,1.97,0,*79
1495310740.82,13244,19.38,73900.3,2.67,1.97,2.01,0,*72
1495310742.05,13245,19.31,73896.0,2.65,1.93,1.93,0,*7D
1495310743.27,13246,19.38,73908.8,2.65,1.93,1.89,0,*75
1495310744.45,13247,19.38,73904.3,2.65,1.83,1.83,0,*7F
1495310745.69,13248,19.31,73892.5,2.63,1.67,1.67,0,*76
1495310746.87,13249,19.31,73902.0,2.65,1.83,1.83,0,*71
1495310748.08,13250,19.31,73894.0,2.65,1.89,1.89,0,*79
1495310749.3,13251,19.31,73894.8,2.65,1.89,1.89,0,*78
1495310750.56,13252,19.31,73902.5,2.63,1.85,1.85,0,*7D
1495310751.8,13253,19.38,73900.0,2.63,1.85,1.89,0,*70
1495310753.03,13254,19.38,73908.0,2.65,1.93,1.97,0,*79
1495310754.27,13255,19.31,73904.0,2.63,1.89,1.89,0,*7A
1495310755.52,13256,19.31,73902.8,2.63,1.85,1.85,0,*79
1495310756.75,13257,19.31,73900.5,2.65,1.97,1.93,0,*7A
1495310757.97,13258,19.31,73904.8,2.65,1.93,1.97,0,*75
1495310759.22,13259,19.31,73904.8,2.63,1.93,1.93,0,*76
1495310760.44,13260,19.31,73896.0,2.65,1.93,1.93,0,*7A
1495310761.64,13261,19.31,73898.3,2.65,1.89,1.83,0,*71
1495310762.86,13262,19.31,73892.3,2.65,1.93,1.89,0,*73
1495310764.1,13263,19.38,73892.0,2.63,1.89,1.89,0,*7F
1495310765.34,13264,19.31,73898.0,2.63,1.93,1.93,0,*78
1495310766.58,13265,19.31,73898.0,2.63,1.89,1.89,0,*79
1495310767.81,13266,19.31,73900.3,2.65,1.93,1.93,0,*7C
1495310769.05,13267,19.31,73896.0,2.63,1.93,1.89,0,*70
1495310770.27,13268,19.31,73900.3,2.65,1.93,1.93,0,*72
1495310771.51,13269,19.31,73898.3,2.63,1.93,1.93,0,*75
1495310772.74,13270,19.31,73902.8,2.65,1.97,1.97,0,*7B
1495310773.97,13271,19.31,73902.3,2.65,1.97,1.93,0,*7E
1495310775.21,13272,19.31,73904.3,2.63,1.89,1.97,0,*70
1495310776.44,13273,19.31,73896.3,2.65,1.93,1.93,0,*78
1495310777.66,13274,19.38,73908.3,2.65,1.93,1.93,0,*7F
1495310778.9,13275,19.31,73906.8,2.63,1.93,1.93,0,*78
1495310780.14,13276,19.31,73902.0,2.63,1.89,1.89,0,*7B
1495310781.37,13277,19.31,73904.0,2.65,1.93,1.93,0,*7C
1495310782.59,13278,19.31,73900.8,2.65,1.93,1.93,0,*73
1495310783.83,13279,19.31,73898.0,2.63,1.89,1.89,0,*74
1495310785.05,13280,19.31,73906.3,2.65,1.97,1.97,0,*74
1495310786.28,13281,19.31,73910.0,2.65,1.93,1.97,0,*71
1495310787.5,13282,19.31,73902.3,2.65,1.93,1.93,0,*76
1495310788.72,13283,19.31,73902.8,2.65,1.89,1.89,0,*77
1495310789.97,13284,19.31,73904.8,2.63,1.89,1.85,0,*7A
1495310791.21,13285,19.31,73904.0,2.63,1.89,1.93,0,*7C
1495310792.43,13286,19.31,73908.0,2.65,1.93,1.97,0,*76
1495310793.67,13287,19.31,73904.5,2.63,1.89,1.89,0,*75
1495310794.91,13288,19.31,73910.5,2.63,1.89,1.93,0,*71
1495310796.15,13289,19.31,73910.5,2.63,1.89,1.89,0,*7B
1495310797.37,13290,19.31,73910.5,2.65,1.93,1.93,0,*75
1495310798.59,13291,19.31,73904.3,2.65,1.89,1.93,0,*7F
1495310799.82,13292,19.38,73910.0,2.65,1.89,1.93,0,*7C
1495310801.01,13293,19.31,73908.5,2.65,1.83,1.93,0,*77
1495310802.23,13294,19.31,73912.8,2.65,1.89,1.93,0,*7A
1495310803.45,13295,19.31,73912.0,2.65,1.89,1.89,0,*70
1495310804.71,13296,19.31,73904.5,2.63,1.85,1.85,0,*75
1495310805.93,13297,19.38,73914.3,2.65,1.89,1.89,0,*72
1495310807.18,13298,19.31,73912.3,2.63,1.85,1.85,0,*7B
1495310808.44,13299,19.31,73914.0,2.63,1.85,1.85,0,*7A
1495310809.69,13300,19.31,73914.5,2.63,1.85,1.85,0,*7B
1495310810.94,13301,19.31,73908.0,2.63,1.93,1.93,0,*7A
1495310812.17,13302,19.31,73912.8,2.63,1.89,1.89,0,*79
1495310813.4,13303,19.31,73920.3,2.65,1.93,1.97,0,*7A
1495310814.64,13304,19.31,73918.8,2.63,1.93,1.89,0,*74
1495310815.86,13305,19.31,73922.3,2.65,1.93,1.93,0,*78
1495310817.11,13306,19.31,73920.0,2.63,1.93,1.89,0,*76
1495310818.34,13307,19.31,73922.3,2.63,1.89,1.89,0,*7C
1495310819.58,13308,19.31,73916.8,2.63,1.89,1.89,0,*73
1495310820.82,13309,19.31,73916.5,2.63,1.93,1.89,0,*79
1495310822.07,13310,19.31,73914.8,2.63,1.93,2.01,0,*72
1495310823.32,13311,19.31,73918.5,2.63,1.93,2.05,0,*77
1495310824.54,13312,19.31,73914.5,2.65,1.93,1.97,0,*7A
1495310825.77,13313,19.31,73920.0,2.65,1.97,1.97,0,*7F
1495310827.0,13314,19.31,73920.3,2.65,1.97,1.97,0,*78
1495310828.24,13315,19.31,73918.5,2.63,1.93,2.01,0,*77
1495310829.47,13316,19.31,73920.3,2.65,1.97,2.09,0,*7E
1495310830.72,13317,19.31,73922.3,2.63,1.93,1.93,0,*7D
1495310831.97,13318,19.31,73916.0,2.63,1.93,2.05,0,*7E
1495310833.19,13319,19.31,73918.0,2.65,2.09,2.05,0,*79
1495310834.42,13320,19.31,73932.0,2.65,2.09,2.05,0,*73
1495310835.65,13321,19.31,73928.0,2.65,2.05,2.09,0,*72
1495310836.88,13322,19.31,73914.3,2.65,1.93,1.93,0,*7D
1495310838.1,13323,19.31,73914.0,2.65,1.97,1.93,0,*78
1495310839.33,13324,19.31,73914.5,2.65,2.05,2.09,0,*77
1495310840.58,13325,19.31,73912.5,2.63,2.05,2.01,0,*78
1495310841.81,13326,19.31,73918.0,2.65,2.05,2.05,0,*79
1495310843.05,13327,19.31,73922.0,2.63,2.01,2.05,0,*7A
1495310844.28,13328,19.31,73918.5,2.65,2.09,2.05,0,*7B
1495310845.51,13329,19.31,73908.5,2.65,2.05,2.05,0,*76
1495310846.74,13330,19.31,73906.8,2.65,1.97,1.97,0,*7E
1495310847.96,13331,19.31,73908.3,2.65,1.93,1.93,0,*7F
1495310849.19,13332,19.31,73922.8,2.65,2.05,1.97,0,*74
1495310850.43,13333,19.31,73910.0,2.63,1.93,2.05,0,*77
1495310851.66,13334,19.31,73914.5,2.65,2.05,2.05,0,*7A
1495310852.89,13335,19.31,73916.5,2.65,1.93,1.97,0,*7F
1495310854.11,13336,19.31,73918.0,2.65,1.97,1.97,0,*78
1495310855.34,13337,19.31,73914.0,2.65,2.05,2.05,0,*79
1495310856.57,13338,19.31,73914.0,2.65,2.05,2.05,0,*76
1495310857.8,13339,19.31,73914.5,2.65,1.93,2.05,0,*7B
1495310859.03,13340,19.31,73916.3,2.65,2.09,2.05,0,*75
1495310860.25,13341,19.31,73912.3,2.65,2.05,2.05,0,*78
1495310861.5,13342,19.31,73908.0,2.63,2.05,2.05,0,*7D
1495310862.73,13343,19.31,73914.0,2.65,2.09,2.05,0,*76
1495310863.96,13344,19.31,73914.0,2.65,2.05,2.09,0,*71
1495310865.19,13345,19.31,73914.0,2.65,2.09,2.09,0,*7C
1495310866.42,13346,19.31,73914.3,2.65,2.05,2.05,0,*7F
1495310867.64,13347,19.31,73918.0,2.65,1.93,1.93,0,*7E
1495310868.87,13348,19.31,73918.5,2.65,1.97,1.97,0,*71
1495310870.09,13349,19.31,73916.3,2.65,1.97,1.97,0,*70
1495310871.34,13350,19.31,73914.5,2.67,1.97,1.97,0,*7A
1495310872.57,13351,19.31,73914.8,2.65,1.93,1.93,0,*79
1495310873.81,13352,19.31,73912.8,2.63,1.89,1.89,0,*7C
1495310875.03,13353,19.31,73916.8,2.65,1.93,1.97,0,*7F
1495310876.26,13354,19.31,73918.3,2.65,1.97,1.97,0,*7C
1495310877.48,13355,19.31,73920.5,2.65,1.97,1.97,0,*7D
1495310878.71,13356,19.31,73918.8,2.65,1.93,1.93,0,*7E
1495310879.93,13357,19.31,73920.5,2.65,1.93,1.93,0,*7F
1495310881.16,13358,19.31,73918.3,2.65,1.93,2.05,0,*7C
1495310882.41,13359,19.31,73912.5,2.63,1.93,1.93,0,*77
1495310883.63,13360,19.31,73910.8,2.65,1.97,1.97,0,*7B
1495310884.86,13361,19.31,73918.8,2.65,1.97,1.93,0,*7E
1495310886.08,13362,19.31,73912.8,2.65,1.93,1.97,0,*7D
1495310887.31,13363,19.31,73914.8,2.65,1.97,1.97,0,*78
1495310888.54,13364,19.31,73918.5,2.65,1.93,1.97,0,*7B
1495310889.79,13365,19.31,73914.0,2.67,1.97,1.97,0,*7C
1495310891.04,13366,19.31,73908.5,2.67,1.97,1.97,0,*7F
1495310892.26,13367,19.31,73916.3,2.65,1.93,1.93,0,*7C
1495310893.48,13368,19.31,73912.0,2.65,1.93,1.93,0,*73
1495310894.71,13369,19.31,73908.0,2.65,1.93,1.93,0,*72
1495310895.95,13370,19.31,73906.5,2.63,1.89,1.89,0,*7C
1495310897.18,13371,19.31,73914.0,2.63,1.89,1.89,0,*7D
1495310898.42,13372,19.31,73908.8,2.63,1.89,1.89,0,*7E
1495310899.65,13373,19.31,73914.3,2.65,1.93,1.93,0,*79
1495310900.9,13374,19.31,73914.5,2.63,1.85,1.85,0,*78
1495310902.12,13375,19.31,73912.5,2.65,1.89,1.89,0,*7F
1495310903.36,13376,19.31,73910.3,2.63,1.89,1.89,0,*7A
1495310904.58,13377,19.31,73910.8,2.65,1.93,1.93,0,*7D
1495310905.82,13378,19.31,73906.8,2.63,1.89,1.93,0,*7F
1495310907.05,13379,19.31,73908.8,2.65,1.93,1.97,0,*77
1495310908.29,13380,19.31,73912.8,2.63,1.97,1.93,0,*77
1495310909.52,13381,19.31,73906.8,2.65,1.93,1.97,0,*70
1495310910.75,13382,19.31,73900.5,2.65,2.05,2.09,0,*7B
1495310912.0,13383,19.31,73902.5,2.63,2.01,2.01,0,*70
1495310913.24,13384,19.31,73906.5,2.63,2.01,1.89,0,*74
1495310914.47,13385,19.31,73912.0,2.65,1.97,2.05,0,*78
1495310915.7,13386,19.31,73908.8,2.65,2.05,2.09,0,*7F
1495310916.94,13387,19.31,73910.0,2.63,2.01,2.01,0,*74
1495310918.19,13388,19.31,73908.8,2.63,2.01,2.01,0,*7B
1495310919.43,13389,19.31,73904.5,2.63,1.89,1.93,0,*71
1495310920.66,13390,19.31,73914.5,2.65,1.97,1.97,0,*74
1495310921.91,13391,19.31,73920.0,2.63,2.01,2.05,0,*77
1495310923.13,13392,19.31,73914.8,2.65,2.05,1.97,0,*7E
1495310924.36,13393,19.31,73910.0,2.65,1.97,1.97,0,*77
1495310925.58,13394,19.31,73914.5,2.65,1.93,1.93,0,*70
1495310926.83,13395,19.31,73908.3,2.63,1.89,1.93,0,*7C
1495310928.05,13396,19.31,73912.8,2.65,1.93,1.97,0,*76
1495310929.28,13397,19.31,73912.8,2.65,1.97,2.09,0,*77
1495310930.53,13398,19.31,73912.3,2.67,2.01,2.01,0,*7E
1495310931.76,13399,19.31,73920.0,2.65,1.97,1.97,0,*7D
1495310932.99,13400,19.31,73908.5,2.65,1.97,2.05,0,*72
1495310934.22,13401,19.31,73906.5,2.65,1.97,1.97,0,*7B
1495310935.46,13402,19.31,73910.5,2.63,1.89,1.89,0,*7E
1495310936.68,13403,19.31,73914.3,2.65,1.97,1.97,0,*79
1495310937.91,13404,19.31,73916.3,2.65,1.93,1.97,0,*7A
1495310939.13,13405,19.31,73916.5,2.65,1.93,1.97,0,*7B
1495310940.36,13406,19.31,73912.3,2.65,1.93,1.93,0,*7C